Riverton, WY

2:08 AM MST on December 12, 2017 (GMT -0700)
Riverton Regional

Weather History for KRIW - July, 2012

Change the Weather History Date:

Saturday, July 14, 2012

  Actual Average Record
Temperature  
Mean Temperature 79 °F 72 °F  
Max Temperature 89 °F 87 °F 100 °F (2002)
Min Temperature 69 °F 57 °F 48 °F (1996)
Degree Days  
Heating Degree Days 0 0  
Month to date heating degree days 0 8  
Since 1 June heating degree days 34 127  
Since 1 July heating degree days 0 8  
Cooling Degree Days 14 7  
Month to date cooling degree days 157 84  
Year to date cooling degree days 322 159  
Since 1 June cooling degree days 312 150  
Growing Degree Days 28 (Base 50)    
Moisture  
Dew Point 45 °F    
Average Humidity 41    
Maximum Humidity 61    
Minimum Humidity 21    
Precipitation  
Precipitation T in 0.03 in 0.01 in (1999)
Month to date precipitation T 0.47  
Year to date precipitation 2.06 5.83  
Snow  
Snow 0.00 in - - ()
Month to date snowfall 0.0  
Since 1 June snowfall 0.0  
Since 1 July snowfall 0.0  
Snow Depth 0.00 in    
Sea Level Pressure  
Sea Level Pressure 29.85 in    
Wind  
Wind Speed 15 mph (SW)    
Max Wind Speed 27 mph    
Max Gust Speed 41 mph    
Visibility 10 miles    
Events      
T = Trace of Precipitation, MM = Missing Value Source: NWS Daily Summary

Daily Weather History Graph

Daily Weather History Graph

Search for Another Location

Airport or City:

Trip Planner

Search our weather history database for the weather conditions in past years. The results will help you decide how hot, cold, wet, or windy it might be!

Date:

Astronomy

Jul. 14, 2012 Rise Set
Actual Time 5:47 AM MDT 8:51 PM MDT
Civil Twilight 5:13 AM MDT 9:25 PM MDT
Nautical Twilight 4:29 AM MDT 10:09 PM MDT
Astronomical Twilight 3:37 AM MDT 11:00 PM MDT
Moon 2:05 AM MDT (7/14) 5:18 PM MDT (7/14)
Length of Visible Light 16h 11m
Length of Day
15h 03m
Waning Crescent, 18% of the Moon is Illuminated
Jul 14
Waning Crescent
Jul 18
New
Jul 26
First Quarter
Aug 1
Full
Aug 9
Last Quarter

Hourly Weather History & Observations

Time (MDT) Temp. Dew Point Humidity Pressure Visibility Wind Dir Wind Speed Gust Speed Precip Events Conditions
12:53 AM 78.1 °F 39.0 °F 25% 29.83 in 10.0 mi WNW 12.7 mph - N/A   Clear
1:53 AM 77.0 °F 39.9 °F 26% 29.83 in 10.0 mi NNW 13.8 mph - N/A   Clear
2:53 AM 73.4 °F 41.0 °F 31% 30.10 in 10.0 mi WSW 11.5 mph - N/A   Clear
3:53 AM 71.6 °F 39.2 °F 31% 30.10 in 10.0 mi West 8.1 mph - N/A   Clear
4:53 AM 72.0 °F 41.0 °F 33% 29.84 in 10.0 mi WNW 11.5 mph - N/A   Clear
5:53 AM 70.0 °F 42.1 °F 36% 29.85 in 10.0 mi NW 9.2 mph - N/A   Clear
6:53 AM 71.1 °F 46.0 °F 41% 29.86 in 10.0 mi West 8.1 mph - N/A   Clear
7:53 AM 73.0 °F 46.9 °F 39% 29.87 in 10.0 mi West 11.5 mph - N/A   Clear
8:53 AM 75.9 °F 46.0 °F 35% 29.88 in 10.0 mi West 11.5 mph - N/A   Clear
9:53 AM 81.0 °F 44.1 °F 27% 29.87 in 10.0 mi West 5.8 mph - N/A   Clear
10:53 AM 82.9 °F 45.0 °F 26% 29.86 in 10.0 mi South 9.2 mph - N/A   Clear
11:53 AM 86.0 °F 44.1 °F 23% 29.85 in 10.0 mi SSW 26.5 mph 33.4 mph N/A   Partly Cloudy
12:53 PM 84.0 °F 45.0 °F 25% 29.86 in 10.0 mi SSW 20.7 mph - N/A   Partly Cloudy
1:53 PM 84.9 °F 44.1 °F 24% 29.84 in 10.0 mi SSW 17.3 mph - N/A   Scattered Clouds
2:53 PM 86.0 °F 44.1 °F 23% 29.82 in 10.0 mi South 16.1 mph 23.0 mph N/A   Clear
3:53 PM 87.1 °F 43.0 °F 21% 29.80 in 10.0 mi SSW 15.0 mph 24.2 mph N/A   Clear
4:53 PM 86.0 °F 42.1 °F 21% 29.80 in 10.0 mi SW 17.3 mph 27.6 mph N/A   Partly Cloudy
5:53 PM 86.0 °F 44.1 °F 23% 29.79 in 10.0 mi South 16.1 mph - N/A   Mostly Cloudy
6:53 PM 86.0 °F 42.1 °F 21% 29.76 in 10.0 mi South 19.6 mph 28.8 mph N/A   Clear
7:53 PM 82.0 °F 44.1 °F 26% 29.78 in 10.0 mi SSW 13.8 mph - N/A   Mostly Cloudy
8:53 PM 82.0 °F 44.1 °F 26% 29.78 in 10.0 mi South 15.0 mph 24.2 mph N/A   Mostly Cloudy
9:53 PM 71.1 °F 55.9 °F 59% 29.84 in 10.0 mi SSE 25.3 mph 41.4 mph N/A   Overcast
10:53 PM 70.0 °F 55.9 °F 61% 29.84 in 10.0 mi SSE 20.7 mph 35.7 mph 0.00 in   Overcast
11:53 PM 70.0 °F 53.1 °F 55% 29.82 in 10.0 mi South 18.4 mph 25.3 mph N/A   Scattered Clouds